Temperature
23 24 22 22 21 21 21 20 20 20 20 21 21 21 21 21 20 20 20 20 20 20 19 19 19 19 20 20 20 20 20 20 20 20 20 20 19 19 18 18 17 17 18
24 24 23 22 21 21 21 20 20 20 20 21 21 21 21 21 21 20 20 20 20 20 20 20 20 20 20 20 20 20 20 20 20 20 20 20 20 19 19 18 17 18 18
25 24 23 22 22 21 21 21 21 20 20 21 21 21 21 21 21 21 20 20 20 20 20 20 20 20 20 20 20 20 20 20 20 20 19 19 20 20 19 19 18 18 18
25 24 23 23 22 21 21 21 21 21 20 21 21 21 21 21 21 21 20 20 20 20 20 20 20 20 20 20 20 20 20 20 20 20 19 18 19 20 20 19 19 19 19
24 24 24 23 22 21 21 21 20 20 20 20 21 21 21 21 21 20 20 20 20 20 20 20 20 20 20 20 20 20 20 20 20 20 19 18 19 19 19 20 19 19 19
23 24 24 23 22 22 21 21 20 20 20 20 20 20 20 20 20 20 20 20 20 20 20 20 20 20 20 20 20 20 20 20 20 20 19 19 19 19 19 19 19 19 19
23 24 24 23 23 22 21 21 21 20 20 20 20 20 20 20 20 20 20 20 20 20 19 19 19 20 20 20 20 20 20 20 20 19 19 19 19 19 19 19 19 19 19
23 23 24 23 23 22 22 21 21 21 21 20 20 20 20 20 20 20 20 20 19 19 19 19 19 19 19 19 19 19 20 20 19 19 19 19 19 19 19 19 19 19 19
24 24 24 24 23 23 22 22 21 21 21 21 21 20 20 20 20 20 20 20 20 19 19 19 19 19 19 19 19 19 19 19 19 19 19 19 19 19 19 19 19 19 19
25 24 24 24 23 23 22 22 22 21 21 21 21 21 20 20 20 20 20 20 19 19 19 19 19 19 19 19 19 19 19 19 19 19 19 19 19 19 19 19 19 19 19
25 24 23 23 23 23 22 22 22 21 21 21 21 21 20 20 20 19 19 19 19 19 19 19 19 19 19 19 19 19 18 19 19 19 19 19 19 19 19 19 19 19 19
26 24 24 22 22 22 21 21 21 21 21 21 20 20 20 20 19 19 19 19 19 19 19 19 19 19 19 19 19 18 18 19 19 18 18 19 19 19 19 19 19 19 19
25 25 24 23 22 22 21 21 21 20 20 20 20 19 19 19 19 19 19 19 19 19 19 19 19 19 19 19 18 18 18 19 18 19 19 19 19 19 19 19 19 19 19
25 25 25 23 23 22 22 21 21 21 21 20 20 20 19 19 19 19 19 19 19 19 19 19 19 19 19 18 19 19 19 19 19 19 19 19 19 19 19 19 19 19 19
25 25 25 23 22 22 22 21 21 21 21 21 20 20 20 19 19 19 19 19 19 19 19 19 19 19 19 19 19 19 19 19 19 19 19 19 19 19 19 19 19 19 19
25 24 24 23 22 22 22 22 21 21 21 21 20 20 20 19 19 19 19 19 19 19 19 19 19 19 19 19 19 19 19 19 19 19 19 19 19 19 19 19 19 19 19
25 24 24 23 22 22 21 21 21 21 21 21 20 20 20 19 19 19 18 18 18 18 18 18 18 18 18 18 18 18 18 19 19 19 19 19 19 19 19 19 19 19 19
25 24 23 23 22 21 21 21 20 21 21 21 21 20 20 19 19 19 18 18 18 18 18 18 18 18 18 18 18 18 18 18 18 19 19 19 19 19 19 19 19 19 19
25 24 23 23 22 21 20 21 20 21 21 21 21 20 20 19 19 18 18 17 17 17 17 17 18 17 17 17 17 18 18 18 18 18 18 19 19 19 19 19 19 19 19
24 23 22 22 21 20 20 20 21 20 20 21 20 20 20 19 19 18 18 17 17 17 17 17 17 17 17 17 17 17 17 18 18 18 18 19 19 19 19 19 19 19 19
22 22 21 21 21 20 20 20 20 21 20 20 20 20 20 19 19 18 18 17 17 16 16 16 16 16 16 16 16 17 17 18 18 19 19 19 19 19 19 19 19 19 19
21 20 20 20 20 20 20 20 21 21 20 20 20 20 19 19 19 18 17 18 17 17 17 16 16 16 16 16 16 16 16 17 19 19 20 19 19 19 19 19 19 19 19
20 20 19 19 19 19 20 20 20 20 20 20 20 19 19 19 18 18 18 18 17 17 16 16 16 15 15 16 15 15 16 17 17 18 19 19 20 20 20 20 19 19 19
18 19 19 19 19 19 19 19 19 19 19 20 20 19 19 18 18 17 17 17 17 17 16 16 16 16 15 15 15 15 15 15 15 16 17 18 19 19 19 20 20 20 19
18 18 18 18 18 18 18 18 18 18 19 19 19 19 18 18 18 17 17 17 17 17 16 16 16 16 15 14 14 14 15 15 15 15 15 17 18 18 19 19 19 19 19
17 17 17 17 17 17 17 17 17 17 18 18 18 18 18 18 17 17 17 17 17 16 16 16 16 16 15 15 14 14 14 14 14 15 15 15 16 17 18 18 19 19 19
Wind_Speed
19 19 21 17 15 15 16 17 17 16 15 14 13 13 13 13 13 13 12 12 12 12 11 10 9 9 9 9 9 9 9 9 10 10 11 12 11 10 9 8 6 13 13
22 21 21 18 16 16 16 17 17 16 15 14 13 12 12 12 12 12 11 11 11 11 10 9 9 8 8 8 8 8 7 7 6 7 8 11 11 9 8 7 8 13 12
22 21 20 18 17 16 16 17 16 16 15 14 13 12 11 11 11 10 10 10 9 9 9 8 8 7 7 7 7 6 5 4 3 4 6 9 12 10 8 8 11 12 11
21 20 19 19 18 17 16 16 16 15 14 13 12 12 11 10 10 9 9 8 8 8 7 7 7 7 7 6 6 5 4 3 4 5 8 8 12 12 10 7 7 8 8
20 19 21 20 18 17 16 15 15 14 13 13 12 11 10 9 9 8 8 7 7 7 7 6 6 6 6 6 5 5 5 5 6 9 12 6 13 15 12 8 6 6 6
19 19 21 20 18 16 15 14 14 13 12 12 11 10 9 9 8 8 7 7 6 6 6 6 6 6 6 6 6 6 6 7 8 11 14 6 14 16 14 11 8 7 6
19 19 21 20 18 16 15 14 13 12 12 11 10 10 9 8 8 8 8 8 8 8 8 8 8 8 9 9 9 9 9 9 10 13 13 7 15 20 17 14 11 9 9
21 19 20 20 18 16 15 14 13 12 11 11 10 10 9 9 9 9 9 10 10 10 10 10 10 10 11 12 12 12 12 12 12 14 14 9 18 23 19 17 14 12 12
21 20 17 18 17 16 16 15 14 13 12 12 11 11 10 11 11 12 12 12 12 12 12 12 13 13 13 13 14 15 15 15 14 13 14 9 21 24 21 19 17 15 15
21 20 17 17 17 16 15 16 15 14 14 13 12 12 12 13 14 15 16 16 16 16 15 15 15 15 15 16 16 17 17 15 15 16 15 12 22 24 22 20 18 17 17
17 19 18 18 16 16 16 18 17 15 15 14 13 15 13 13 15 16 21 21 21 20 19 18 17 17 17 17 19 20 18 14 15 16 16 16 23 25 23 21 20 19 18
13 16 16 18 16 14 13 15 14 14 15 15 13 15 14 13 12 13 13 23 24 23 21 20 19 18 17 15 18 23 16 17 17 15 16 18 24 25 24 22 21 20 19
10 12 15 15 13 11 7 11 8 9 11 14 14 12 12 10 9 10 6 12 17 18 16 15 16 15 14 13 11 11 16 16 14 15 14 19 25 26 24 22 21 21 20
11 10 13 14 11 7 5 6 6 5 6 6 9 10 7 4 4 4 3 3 5 7 7 7 3 11 13 13 11 8 12 12 12 11 8 16 23 23 23 22 21 21 21
11 10 10 12 11 7 3 1 4 3 3 4 5 5 3 2 3 3 3 3 5 5 3 3 4 5 6 6 7 8 9 10 11 11 8 17 22 23 23 23 22 22 22
14 12 11 12 12 9 6 3 2 2 3 2 2 3 3 2 1 3 4 4 4 5 5 4 6 6 6 5 7 8 9 9 8 7 8 13 22 25 26 25 24 24 24
15 13 11 12 13 11 9 8 6 5 4 3 3 4 4 2 0 1 4 5 4 5 5 5 6 6 7 8 8 9 9 9 9 8 10 9 13 22 26 26 26 26 26
15 13 12 12 14 12 7 6 4 3 4 2 2 3 4 3 2 2 4 4 3 3 4 5 6 6 6 6 7 8 8 8 10 9 10 11 11 13 20 27 27 27 27
10 10 10 6 11 10 7 4 2 2 2 1 1 3 5 3 3 2 3 4 4 4 5 6 4 3 5 6 7 8 8 9 10 12 12 11 11 13 13 20 28 28 28
9 9 8 8 10 10 7 4 2 2 3 2 2 5 5 2 2 3 4 4 5 5 5 4 6 6 5 6 9 9 7 8 9 10 13 12 11 14 15 14 17 22 28
8 8 7 8 9 6 4 3 3 3 1 1 2 6 4 1 2 2 4 5 5 4 5 6 6 7 7 6 6 7 8 9 10 10 11 11 12 12 11 11 12 12 15
11 9 7 7 5 4 4 1 1 2 1 0 2 4 4 3 0 3 2 4 5 5 6 6 5 5 7 6 6 7 7 7 7 10 9 10 12 10 11 13 9 10 10
8 6 5 5 3 2 3 1 1 1 1 2 2 3 3 2 2 2 2 4 4 5 5 5 6 7 6 6 6 5 5 5 7 7 9 7 8 8 9 8 10 10 13
9 8 4 4 2 2 1 3 3 3 4 3 3 2 4 3 5 4 4 4 4 4 6 6 4 5 6 7 6 6 7 9 7 7 8 8 9 7 8 9 8 7 8
11 9 8 5 4 3 3 4 4 6 6 5 3 1 2 4 6 7 6 5 4 5 6 5 6 6 5 7 7 7 8 8 8 8 10 9 8 6 6 6 5 4 3
12 11 11 11 10 10 8 6 5 6 8 9 8 6 4 5 5 7 7 5 4 5 5 5 6 7 7 7 7 7 8 7 7 7 9 9 9 8 6 4 2 2 1
Wind_Direction
122 131 132 128 126 127 131 135 136 135 134 133 129 125 120 116 112 108 107 108 110 111 110 108 103 99 95 92 90 88 87 87 89 93 96 97 98 98 97 93 107 108 107
125 132 133 131 132 132 134 136 137 137 137 136 134 132 128 124 119 116 115 115 116 117 115 111 106 104 102 101 100 99 98 100 109 119 125 121 113 106 97 74 73 115 116
125 133 135 135 136 137 138 139 140 140 140 139 139 138 136 132 129 126 125 124 123 123 124 123 119 115 113 112 113 114 116 126 152 170 184 162 132 123 109 92 97 115 121
129 139 141 140 140 141 142 143 143 144 143 143 144 145 144 142 140 139 136 135 135 134 134 135 134 133 132 133 135 139 149 179 225 240 233 210 147 136 129 117 116 124 130
132 138 139 146 145 146 146 147 147 148 147 148 150 151 152 152 153 152 151 151 152 151 152 153 153 152 153 156 161 170 185 213 245 258 263 222 136 144 142 140 142 146 149
134 138 144 149 148 149 150 151 152 152 153 155 156 159 162 164 168 170 171 174 177 178 179 180 181 179 180 183 187 195 207 226 250 255 257 210 142 153 153 156 168 176 178
139 137 147 151 152 153 155 157 158 159 161 164 166 170 175 180 187 191 194 198 201 204 206 207 207 206 204 204 206 210 217 228 245 268 272 232 154 160 162 166 179 194 199
138 138 146 152 156 159 162 165 167 168 171 175 179 184 191 198 205 211 214 216 218 220 222 224 224 223 221 219 218 219 222 233 240 247 254 240 160 164 168 172 182 197 209
138 136 150 157 161 165 169 173 175 178 181 186 192 199 205 213 219 224 226 226 227 227 228 230 232 233 232 230 228 227 228 233 252 268 263 225 168 171 174 179 186 198 210
138 143 155 160 164 170 176 181 183 186 189 195 202 209 215 223 229 232 232 229 230 229 228 231 233 234 235 236 235 234 234 237 243 253 257 243 180 178 181 185 191 200 210
145 147 162 161 166 176 180 181 185 191 197 201 210 217 221 231 235 230 229 227 225 226 227 228 232 235 236 238 238 236 235 236 240 240 244 229 188 184 186 189 196 205 212
149 157 165 161 166 183 185 165 183 192 195 204 212 206 211 229 248 257 230 219 220 222 225 227 230 235 237 242 238 229 229 232 241 245 239 217 190 188 189 193 199 207 215
164 173 160 151 160 184 164 160 186 192 178 197 216 205 203 225 247 262 248 212 217 221 225 230 229 233 235 235 245 224 218 230 231 238 240 206 189 190 193 197 202 209 217
178 187 162 148 157 183 165 171 172 183 169 191 190 205 197 207 259 285 297 296 219 219 215 232 213 221 228 239 241 230 221 228 236 235 225 193 190 194 198 201 207 213 219
179 186 159 146 148 156 155 247 188 173 167 169 155 181 171 195 243 290 307 311 299 293 272 243 260 261 251 250 254 253 251 246 246 243 218 193 193 198 204 207 211 218 222
176 183 162 152 148 153 159 186 278 244 165 197 136 137 147 190 218 273 282 275 272 281 291 285 279 275 270 263 261 260 265 271 268 264 244 207 201 203 207 211 213 218 223
176 174 161 163 156 162 172 184 198 216 181 151 145 164 171 174 132 291 280 270 263 272 269 264 264 258 259 257 254 255 255 259 266 266 266 253 223 214 213 214 215 217 220
175 166 168 178 161 161 166 179 211 204 128 145 173 154 112 75 31 329 291 292 321 296 273 261 252 255 257 261 260 259 257 253 255 254 252 248 244 238 223 220 219 218 218
154 148 151 143 136 142 144 162 219 106 103 187 155 95 87 51 356 322 315 306 312 296 291 300 320 308 293 282 274 257 244 243 246 250 244 239 236 236 233 220 217 217 218
115 118 127 123 117 129 144 163 179 142 170 185 118 103 93 46 10 22 312 334 344 313 310 328 328 313 293 276 279 280 261 247 242 243 245 242 237 237 235 231 217 219 220
86 96 116 118 117 131 147 170 168 160 186 150 130 109 101 77 27 335 295 335 312 306 333 320 311 309 302 293 289 288 273 255 243 236 234 236 236 235 235 228 217 210 212
65 63 79 89 114 130 115 113 93 93 224 230 90 129 153 159 92 289 14 329 320 333 302 289 307 304 302 305 304 301 295 284 267 257 233 230 233 232 232 233 219 211 212
63 72 79 83 92 72 97 181 178 100 299 258 223 186 154 145 208 249 282 282 303 296 302 335 303 295 305 309 295 288 295 292 313 301 300 277 249 232 229 229 223 216 218
39 39 41 90 87 63 34 300 295 265 260 255 221 202 150 191 215 214 227 247 266 285 296 291 329 335 306 296 296 287 278 289 295 298 298 297 288 266 246 236 233 224 219
39 35 21 36 41 25 349 314 310 293 289 289 287 238 178 231 217 208 211 216 240 260 273 291 295 285 285 286 292 297 296 294 279 274 285 292 296 290 272 248 232 225 217
43 37 32 29 32 24 11 349 329 308 302 304 310 307 284 259 236 214 205 196 222 251 273 281 280 280 276 278 280 280 280 280 282 277 279 285 287 291 300 306 283 233 152
Height
1501 1503 1507 1510 1512 1515 1517 1519 1521 1523 1524 1525 1527 1528 1529 1531 1532 1534 1535 1536 1537 1539 1540 1541 1542 1543 1544 1545 1546 1546 1547 1548 1549 1549 1550 1550 1551 1551 1552 1552 1553 1555 1556
1499 1503 1507 1510 1513 1515 1518 1520 1522 1524 1526 1527 1529 1530 1531 1533 1534 1535 1537 1538 1539 1540 1541 1542 1543 1544 1545 1546 1547 1548 1549 1549 1550 1551 1551 1552 1553 1553 1553 1553 1554 1556 1557
1500 1504 1507 1510 1513 1516 1518 1521 1523 1525 1527 1529 1530 1531 1533 1534 1536 1537 1538 1540 1541 1542 1542 1543 1544 1545 1546 1547 1548 1549 1550 1551 1551 1552 1552 1553 1555 1555 1555 1555 1556 1557 1558
1500 1504 1507 1510 1513 1516 1519 1521 1524 1526 1528 1530 1531 1533 1534 1536 1537 1538 1540 1541 1542 1543 1543 1544 1545 1546 1547 1547 1548 1549 1550 1551 1552 1553 1553 1555 1556 1557 1557 1557 1557 1558 1559
1501 1504 1507 1510 1513 1516 1519 1522 1524 1526 1528 1530 1532 1534 1535 1537 1538 1539 1540 1541 1542 1543 1544 1544 1545 1546 1547 1547 1548 1549 1550 1551 1552 1553 1554 1556 1557 1557 1558 1558 1558 1559 1560
1502 1505 1508 1511 1513 1516 1519 1522 1524 1526 1529 1530 1532 1534 1535 1537 1538 1539 1540 1541 1542 1543 1543 1544 1545 1545 1546 1547 1548 1548 1549 1550 1552 1553 1554 1556 1556 1557 1558 1559 1559 1560 1560
1504 1505 1508 1511 1513 1516 1519 1521 1524 1526 1528 1530 1532 1533 1535 1536 1537 1538 1539 1540 1541 1541 1542 1543 1543 1544 1545 1545 1546 1547 1548 1549 1550 1551 1552 1555 1555 1556 1557 1558 1559 1559 1560
1505 1505 1509 1511 1513 1516 1518 1521 1523 1525 1527 1529 1531 1532 1534 1535 1536 1537 1538 1538 1539 1539 1540 1541 1541 1542 1543 1543 1544 1545 1546 1547 1548 1549 1550 1552 1553 1553 1554 1556 1557 1558 1559
1505 1505 1508 1511 1513 1516 1518 1520 1522 1524 1526 1528 1529 1531 1532 1533 1534 1535 1536 1537 1537 1538 1538 1539 1539 1540 1540 1541 1542 1542 1543 1544 1545 1546 1548 1550 1550 1550 1552 1553 1554 1555 1556
1504 1505 1508 1510 1512 1515 1517 1519 1521 1523 1525 1526 1528 1529 1530 1531 1532 1533 1534 1535 1536 1536 1536 1537 1537 1537 1538 1538 1539 1540 1540 1541 1542 1543 1543 1545 1546 1547 1548 1549 1550 1551 1552
1504 1504 1506 1508 1510 1513 1515 1517 1520 1522 1523 1525 1526 1528 1528 1529 1530 1530 1531 1532 1533 1534 1534 1535 1535 1535 1535 1536 1536 1537 1537 1538 1538 1538 1540 1541 1543 1544 1545 1546 1547 1547 1549
1503 1505 1506 1507 1509 1512 1515 1516 1518 1520 1521 1523 1524 1525 1526 1527 1528 1530 1530 1530 1530 1530 1531 1531 1532 1532 1532 1532 1532 1533 1534 1534 1534 1535 1536 1538 1539 1539 1541 1542 1543 1543 1544
1501 1504 1506 1506 1507 1511 1515 1515 1517 1519 1520 1521 1522 1523 1524 1525 1526 1528 1528 1527 1527 1527 1527 1527 1528 1528 1528 1528 1529 1530 1530 1530 1530 1531 1532 1533 1534 1535 1536 1537 1538 1539 1540
1498 1501 1503 1504 1505 1509 1512 1515 1516 1518 1519 1520 1521 1522 1522 1523 1524 1525 1525 1525 1525 1525 1524 1524 1524 1524 1524 1525 1526 1526 1526 1527 1526 1528 1528 1529 1529 1531 1532 1532 1533 1534 1535
1494 1497 1500 1500 1502 1504 1507 1510 1514 1516 1517 1519 1519 1520 1520 1520 1521 1521 1521 1521 1521 1522 1522 1522 1521 1521 1521 1521 1522 1522 1523 1523 1522 1523 1523 1523 1524 1525 1526 1528 1528 1529 1530
1489 1492 1495 1495 1497 1500 1503 1506 1509 1512 1514 1516 1516 1517 1517 1518 1518 1517 1517 1517 1517 1517 1517 1516 1516 1516 1516 1516 1516 1516 1517 1517 1517 1517 1518 1519 1518 1519 1520 1521 1522 1524 1525
1483 1486 1489 1491 1494 1496 1499 1502 1505 1508 1511 1512 1514 1514 1515 1515 1515 1514 1514 1514 1513 1513 1512 1512 1512 1511 1510 1511 1510 1511 1511 1511 1511 1512 1512 1513 1513 1513 1514 1515 1516 1517 1519
1478 1481 1485 1488 1490 1493 1497 1500 1503 1506 1507 1509 1511 1513 1512 1513 1512 1512 1511 1511 1510 1509 1509 1508 1507 1507 1506 1506 1505 1505 1505 1505 1504 1504 1505 1505 1506 1507 1507 1508 1510 1511 1513
1475 1476 1480 1484 1485 1489 1493 1497 1500 1502 1504 1506 1509 1510 1510 1510 1510 1509 1508 1508 1507 1506 1506 1506 1505 1504 1502 1502 1501 1500 1499 1498 1498 1498 1498 1498 1499 1500 1501 1502 1503 1505 1506
1471 1472 1475 1480 1483 1486 1491 1494 1499 1501 1501 1504 1507 1507 1507 1507 1507 1506 1506 1505 1504 1503 1503 1502 1501 1500 1499 1498 1497 1496 1494 1493 1492 1492 1492 1492 1492 1493 1494 1495 1495 1497 1499
1471 1470 1470 1475 1480 1486 1490 1494 1497 1500 1500 1502 1505 1505 1505 1505 1505 1504 1503 1502 1501 1501 1500 1499 1498 1496 1495 1495 1493 1491 1489 1488 1487 1486 1485 1485 1485 1486 1488 1488 1489 1490 1492
1469 1473 1471 1475 1481 1486 1488 1491 1495 1498 1499 1500 1502 1502 1502 1502 1502 1502 1501 1499 1499 1498 1496 1496 1495 1493 1492 1492 1491 1488 1485 1484 1482 1481 1480 1479 1479 1480 1480 1482 1483 1484 1486
1474 1474 1475 1481 1486 1488 1489 1491 1494 1496 1498 1499 1499 1499 1499 1499 1499 1499 1497 1496 1495 1494 1494 1493 1492 1490 1489 1488 1488 1488 1485 1480 1478 1476 1475 1474 1473 1473 1473 1475 1477 1478 1479
1477 1479 1482 1484 1487 1488 1490 1493 1494 1495 1496 1497 1497 1498 1497 1496 1496 1495 1494 1493 1492 1491 1490 1490 1490 1487 1486 1484 1483 1483 1483 1480 1478 1472 1470 1469 1469 1468 1469 1470 1471 1472 1473
1479 1481 1484 1485 1486 1487 1489 1490 1490 1492 1494 1495 1494 1494 1493 1493 1493 1492 1491 1490 1489 1488 1487 1486 1485 1483 1481 1480 1479 1478 1476 1475 1474 1472 1467 1465 1465 1464 1464 1464 1464 1466 1467
1482 1482 1483 1484 1484 1485 1486 1487 1488 1488 1489 1490 1490 1490 1490 1490 1490 1489 1487 1486 1485 1484 1483 1482 1480 1479 1477 1476 1474 1472 1471 1470 1468 1467 1465 1462 1461 1460 1460 1459 1459 1460 1461